When you browse on this site, cookies collect data to enhance your experience and personalize the content and advertising you see.
Visit our Privacy Policy to learn more. By continuing to use the site, you agree to this use of cookies and data.
  • En España
  • Lista de países
  • Para 7 días
  • Temperatura del agua
  • Mapa Satelital
  • El tiempo en el mapa
  • Informadores
  • user-avatar
    Iniciar sesión

    Tiempo cada hora Dubrovnic

    Hoy, 21 Abril, Domingo

    Tiempo Temperatura Precipitaciones Viento Presión Humedad
    00:00 +13°C° 0 mm 3 mps 766 mmHg 62%
    01:00 +13°C° 0 mm 4 mps 766 mmHg 59%
    02:00 +13°C° 0 mm 3 mps 766 mmHg 60%
    03:00 +13°C° 0 mm 3 mps 766 mmHg 61%
    04:00 +12°C° 0 mm 3 mps 766 mmHg 62%
    05:00 +13°C° 0 mm 3 mps 766 mmHg 62%
    06:00 +15°C° 0 mm 2 mps 765 mmHg 62%
    07:00 +16°C° 0 mm 2 mps 765 mmHg 62%
    08:00 +17°C° 0 mm 3 mps 765 mmHg 57%
    09:00 +18°C° 0 mm 4 mps 765 mmHg 53%
    10:00 +19°C° 0 mm 4 mps 765 mmHg 48%
    11:00 +20°C° 0 mm 5 mps 764 mmHg 53%
    12:00 +20°C° 0 mm 5 mps 764 mmHg 58%
    13:00 +20°C° 0 mm 5 mps 764 mmHg 63%
    14:00 +20°C° 0 mm 5 mps 764 mmHg 67%
    15:00 +19°C° 0 mm 5 mps 763 mmHg 71%
    16:00 +19°C° 0 mm 4 mps 763 mmHg 75%
    17:00 +18°C° 0 mm 4 mps 763 mmHg 80%
    18:00 +15°C° 0 mm 4 mps 763 mmHg 86%
    19:00 +14°C° 0 mm 3 mps 763 mmHg 91%
    20:00 +14°C° 0 mm 3 mps 763 mmHg 91%
    21:00 +14°C° 0 mm 4 mps 764 mmHg 90%
    22:00 +13°C° 0 mm 4 mps 764 mmHg 90%
    23:00 +13°C° 0 mm 4 mps 764 mmHg 90%

    Mañana, 22 Abril, Lunes

    Tiempo Temperatura Precipitaciones Viento Presión Humedad
    00:00 +13°C° 0 mm 4 mps 764 mmHg 90%
    01:00 +13°C° 0 mm 3 mps 763 mmHg 90%
    02:00 +12°C° 0 mm 3 mps 763 mmHg 90%
    03:00 +12°C° 0 mm 3 mps 763 mmHg 90%
    04:00 +12°C° 0 mm 3 mps 763 mmHg 90%
    05:00 +13°C° 0 mm 4 mps 762 mmHg 86%
    06:00 +14°C° 0 mm 4 mps 762 mmHg 83%
    07:00 +14°C° 0 mm 4 mps 761 mmHg 79%
    08:00 +17°C° 0 mm 4 mps 761 mmHg 74%
    09:00 +17°C° 0 mm 5 mps 760 mmHg 69%
    10:00 +19°C° 0 mm 5 mps 760 mmHg 64%
    11:00 +19°C° 0 mm 6 mps 759 mmHg 64%
    12:00 +19°C° 0 mm 6 mps 759 mmHg 63%
    13:00 +20°C° 0 mm 7 mps 758 mmHg 63%
    14:00 +18°C° 0 mm 7 mps 758 mmHg 62%
    15:00 +18°C° 0 mm 7 mps 758 mmHg 62%
    16:00 +18°C° 0 mm 7 mps 757 mmHg 62%
    17:00 +17°C° 0 mm 7 mps 757 mmHg 68%
    18:00 +16°C° 0 mm 8 mps 757 mmHg 73%
    19:00 +15°C° 0 mm 8 mps 757 mmHg 79%
    20:00 +15°C° 0.1 mm 8 mps 757 mmHg 81%
    21:00 +15°C° 0.1 mm 9 mps 757 mmHg 83%
    22:00 +13°C° 0.1 mm 10 mps 757 mmHg 84%
    23:00 +13°C° 0.1 mm 9 mps 757 mmHg 83%

    Pasado mañana, 23 Abril, Martes

    Tiempo Temperatura Precipitaciones Viento Presión Humedad
    00:00 +15°C° 0.1 mm 8 mps 756 mmHg 81%
    01:00 +15°C° 0.1 mm 7 mps 756 mmHg 79%
    02:00 +15°C° 0.1 mm 7 mps 755 mmHg 79%
    03:00 +15°C° 0.1 mm 6 mps 755 mmHg 78%
    04:00 +15°C° 0.1 mm 6 mps 755 mmHg 77%
    05:00 +15°C° 0 mm 7 mps 754 mmHg 76%
    06:00 +16°C° 0 mm 7 mps 754 mmHg 74%
    07:00 +16°C° 0 mm 8 mps 754 mmHg 72%
    08:00 +16°C° 0 mm 8 mps 755 mmHg 74%
    09:00 +16°C° 0 mm 9 mps 755 mmHg 76%
    10:00 +16°C° 0 mm 9 mps 755 mmHg 78%
    11:00 +16°C° 0.3 mm 9 mps 755 mmHg 81%
    12:00 +16°C° 0.3 mm 9 mps 755 mmHg 85%
    13:00 +16°C° 0.3 mm 10 mps 756 mmHg 89%
    14:00 +16°C° 0.6 mm 9 mps 756 mmHg 90%
    15:00 +16°C° 0.6 mm 9 mps 756 mmHg 92%
    16:00 +16°C° 0.6 mm 9 mps 756 mmHg 94%
    17:00 +16°C° 0.9 mm 9 mps 756 mmHg 94%
    18:00 +16°C° 0.9 mm 9 mps 757 mmHg 95%
    19:00 +16°C° 0.9 mm 10 mps 757 mmHg 96%
    20:00 +16°C° 0.2 mm 9 mps 758 mmHg 94%
    21:00 +16°C° 0.2 mm 9 mps 758 mmHg 93%
    22:00 +16°C° 0.2 mm 8 mps 759 mmHg 91%
    23:00 +16°C° 0.1 mm 8 mps 759 mmHg 90%

    24 Abril, Miércoles

    Tiempo Temperatura Precipitaciones Viento Presión Humedad
    00:00 +16°C° 0.1 mm 8 mps 760 mmHg 89%
    01:00 +16°C° 0.1 mm 7 mps 760 mmHg 89%
    02:00 +15°C° 0 mm 7 mps 760 mmHg 87%
    03:00 +15°C° 0 mm 6 mps 760 mmHg 86%
    04:00 +15°C° 0 mm 6 mps 760 mmHg 85%
    05:00 +16°C° 0 mm 6 mps 760 mmHg 81%
    06:00 +16°C° 0 mm 5 mps 760 mmHg 77%
    07:00 +17°C° 0 mm 5 mps 761 mmHg 73%
    08:00 +20°C° 0 mm 5 mps 761 mmHg 67%
    09:00 +21°C° 0 mm 6 mps 761 mmHg 62%
    10:00 +22°C° 0 mm 6 mps 762 mmHg 56%
    11:00 +23°C° 0 mm 6 mps 761 mmHg 55%
    12:00 +23°C° 0 mm 5 mps 761 mmHg 53%
    13:00 +23°C° 0 mm 5 mps 761 mmHg 52%
    14:00 +23°C° 0 mm 5 mps 761 mmHg 52%
    15:00 +23°C° 0 mm 5 mps 761 mmHg 52%
    16:00 +23°C° 0 mm 4 mps 761 mmHg 52%
    17:00 +21°C° 0 mm 4 mps 761 mmHg 56%
    18:00 +20°C° 0 mm 4 mps 762 mmHg 60%
    19:00 +18°C° 0 mm 4 mps 762 mmHg 64%
    20:00 +17°C° 0 mm 5 mps 763 mmHg 66%
    21:00 +17°C° 0 mm 5 mps 763 mmHg 68%
    22:00 +16°C° 0 mm 5 mps 763 mmHg 69%
    23:00 +16°C° 0 mm 5 mps 763 mmHg 72%

    25 Abril, Jueves

    Tiempo Temperatura Precipitaciones Viento Presión Humedad
    00:00 +16°C° 0 mm 5 mps 763 mmHg 75%
    01:00 +15°C° 0 mm 4 mps 763 mmHg 78%
    02:00 +15°C° 0 mm 4 mps 763 mmHg 78%
    03:00 +15°C° 0 mm 4 mps 763 mmHg 77%
    04:00 +16°C° 0 mm 3 mps 763 mmHg 77%
    05:00 +17°C° 0 mm 3 mps 763 mmHg 75%
    06:00 +18°C° 0 mm 3 mps 763 mmHg 72%
    07:00 +19°C° 0 mm 3 mps 764 mmHg 70%
    08:00 +21°C° 0 mm 3 mps 763 mmHg 65%
    09:00 +22°C° 0 mm 4 mps 763 mmHg 61%
    10:00 +25°C° 0 mm 4 mps 763 mmHg 56%
    11:00 +25°C° 0 mm 4 mps 763 mmHg 55%
    12:00 +25°C° 0 mm 4 mps 763 mmHg 54%
    13:00 +26°C° 0 mm 4 mps 762 mmHg 54%
    14:00 +25°C° 0 mm 4 mps 762 mmHg 55%
    15:00 +25°C° 0 mm 4 mps 762 mmHg 56%
    16:00 +25°C° 0 mm 4 mps 762 mmHg 57%
    17:00 +22°C° 0 mm 4 mps 761 mmHg 60%
    18:00 +21°C° 0 mm 3 mps 761 mmHg 62%
    19:00 +20°C° 0 mm 3 mps 761 mmHg 64%
    20:00 +19°C° 0 mm 3 mps 762 mmHg 65%
    21:00 +19°C° 0 mm 4 mps 762 mmHg 65%
    22:00 +19°C° 0 mm 5 mps 762 mmHg 65%
    23:00 +17°C° 0 mm 5 mps 762 mmHg 66%

    26 Abril, Viernes

    Tiempo Temperatura Precipitaciones Viento Presión Humedad
    00:00 +18°C° 0 mm 4 mps 762 mmHg 67%
    01:00 +17°C° 0 mm 4 mps 762 mmHg 68%
    02:00 +17°C° 0 mm 4 mps 762 mmHg 69%
    03:00 +16°C° 0 mm 5 mps 761 mmHg 71%
    04:00 +16°C° 0 mm 5 mps 761 mmHg 72%
    05:00 +17°C° 0 mm 5 mps 761 mmHg 70%
    06:00 +19°C° 0 mm 4 mps 761 mmHg 69%
    07:00 +20°C° 0 mm 4 mps 761 mmHg 67%
    08:00 +21°C° 0 mm 5 mps 761 mmHg 65%
    09:00 +22°C° 0 mm 5 mps 761 mmHg 63%
    10:00 +23°C° 0 mm 5 mps 761 mmHg 61%
    11:00 +23°C° 0 mm 5 mps 760 mmHg 61%
    12:00 +25°C° 0 mm 5 mps 760 mmHg 60%
    13:00 +25°C° 0 mm 5 mps 760 mmHg 59%
    14:00 +25°C° 0 mm 5 mps 759 mmHg 61%
    15:00 +23°C° 0 mm 5 mps 759 mmHg 62%
    16:00 +23°C° 0 mm 5 mps 759 mmHg 63%
    17:00 +22°C° 0 mm 5 mps 759 mmHg 68%
    18:00 +20°C° 0 mm 5 mps 759 mmHg 73%
    19:00 +19°C° 0 mm 5 mps 759 mmHg 78%
    20:00 +19°C° 0 mm 5 mps 760 mmHg 76%
    21:00 +17°C° 0 mm 5 mps 760 mmHg 75%
    22:00 +18°C° 0 mm 4 mps 760 mmHg 74%
    23:00 +17°C° 0.1 mm 5 mps 760 mmHg 74%
    Mostrar más